COSMOS 2251 DEB, 33758

Orbit data source: Space-Track

COSMOS 2251 DEB, 33758 is space debris in LEO originally from a launch on Wed, 16 Jun 1993 UTC launched from the Plesetsk Missile And Space Complex (PKMTR). The debris from Iridium 33, an American commercial communications satellite, has been tracked extensively since its accidental collision with the defunct Russian satellite Cosmos 2251 in 2009. This event, occurring at high speed in low Earth orbit (LEO), generated thousands of pieces of space debris, significantly increasing the risk of further collisions. The Iridium 33 debris cloud has impacted space traffic management and orbital debris mitigation strategies, making it a subject of ongoing study in space situational awareness.

Loading next visibility...
Identifier
33758, 1993-036F
Orbit
LEO
Country
Flag of CISCIS
Related business
Manufacturer
Unknown
Mission
Spacecraft
Bus & Motor
Unknown
Mass
Unknown
Launch date (UTC)
1993-06-16 (33 years ago)
Launch vehicle
Unknown
Launch site
Plesetsk Missile And Space Complex (PKMTR)
Object type
Payload
Rocket body
Debris
Shape & HBR
Unknown shape, 0.3 m
Radar Cross Section
Small (<0.1 m²)

Expand to show TLE details & history
Last TLE update: 22 hours ago

TLE from 22 hours ago
0 COSMOS 2251 DEB
1 33758U 93036F   26144.60075940  .00001939  00000-0  47868-3 0  9993
2 33758  74.0270 267.9487 0016430 300.4542  74.7013 14.52725405906690
Epoch: 2026-05-24T14:25Z
TLE epoch observation values (Epoch: 2026-05-24T14:25:05.612Z)
Latitude
14.71071°
Longitude
173.7614°
Altitude
715.616 km
Speed
7.501 km/s
True Right ascension
18h 08m 56s
True Declination
14° 37' 34"
Sunlit
Object was in full shadow at epoch
Visualization orbit readout
Latitude
Unknown
Longitude
Unknown
Altitude
Unknown
Speed
Unknown
Apparent Right ascension
Unknown
Apparent Declination
Unknown
Sunlit
N/A
Visualization observer readout
Local Sidereal Time
21:42:43
Azimuth
Unknown
Elevation
Unknown
Doppler factor
Unknown
Orbital elements
Apogee altitude
726.02 km
Perigee altitude
702.714 km
Semi-major axis
7,092.504 km
Eccentricity
0.00164
Inclination
74.027°
RAAN
267.9487°
Arg. of periapsis
300.4542°
True anomaly
74.883°
Mean anomaly
74.7013°
Eccentric anomaly
74.79214°
Mean motion
3.63366 °/min
Orbital period
99.07 mins
BSTAR
0.00047868
Loading maneuver chart data...
Computing Atmospheric mass density...
Loading historical data...
Loading historical data...
Loading historical data...
Loading historical data...
Loading historical data...
Loading historical data...
Loading historical data...

Documentation

Showing up to 5 results
|